Location: LDNL
(36.4545°S, 141.6685°E)
Time: 16:19:41
(UTC+10:00)

Courier 1B Rocket - Pass Details

Date: 17 August 2022
Orbit: 920 x 1202 km, 28.2° (Epoch: 25 September)

Event Time Altitude Azimuth Distance (km) Brightness Sun altitude
Exits shadow 03:51:54 32° 53° (NE) 1,938 6.7 -41.0°
Drops below altitude 10° 03:56:17 10° 76° (ENE) 3,122 8.2 -40.2°
Sets 03:59:15 0° 82° (E) 4,065 9.0 -39.6°
